Погода в Воздвиженском

Россия / Ставропольский край     45°49′52″N   43°39′06″E
темп.,
°C
ветер,
м/с
пор.,
м/с
влажн.,
%
обл.,
%
осадки,
мм/ч
давл.,
гПа
погр.,
м
11 апреля, вс
вс1100:00+7з4685100 0.0 1020218
03:00+7з2486100 0.0 1019151
06:00+7зюз3487100 0.0 1019168
09:00+10з217692 0.0 1019450
12:00+15в336062 0.0 10181123
15:00+19вюв3649100 0.0 10171520
18:00+16в2258100 0.0 101621
21:00+14с2263100 0.0 101616
12 апреля, пн
пн1200:00+12вюв4965100 0.0 1016158
03:00+11в2263100 0.0 101620
06:00+11ссв0066100 0.0 101611
09:00+14ююз1157100 0.0 1018578
12:00+16вюв2353100 0.0 1019925
15:00+20юв474499 0.0 10181745
18:00+16вюв61054100 0.0 1019438
21:00+12з1285100 0.0 102135
13 апреля, вт
вт1300:00+11вюв34775 0.0 102156
03:00+9юв237796 0.0 102127
06:00+11вюв2271100 0.0 102159
09:00+11всв1172100 0.0 102173
12:00+13всв2466100 0.1 1021367
15:00+13ю3471100 0.4 1021408
18:00+12з3481100 0.0 1021235
21:00+10сз2393100 0.0 1021114
14 апреля, ср
ср1400:00+10сз2294100 0.0 102021
03:00+9всв1277100 0.0 101912
06:00+9сз116893 0.0 101811
09:00+13ссз0047100 0.0 1017418
12:00+17ююз1237100 0.0 10161111
15:00+18зюз2235100 0.0 10161690
18:00+13з6876100 0.0 1016315
21:00+11зсз3682100 0.0 1018236
15 апреля, чт
чт1500:00+10з2487100 0.0 1017139
03:00+8з34920 0.0 101778
06:00+8з22900 0.0 101828
09:00+14зсз33620 0.0 1017462
12:00+18ссз22440 0.0 10161053
15:00+20св22385 0.0 10151464
18:00+18сз224799 0.0 101512
21:00+16вюв2249100 0.0 101511